Stuttgart, AR

9:07 PM CST on November 20, 2017 (GMT -0600)
Stuttgart Municipal

Weather History for KSGT - December, 2012

Change the Weather History Date:

Saturday, December 8, 2012

  Actual Average Record
Temperature  
Mean Temperature 62 °F -  
Max Temperature 64 °F 51 °F 66 °F (2001)
Min Temperature 59 °F 37 °F 17 °F (2006)
Degree Days  
Heating Degree Days 4    
Growing Degree Days 12 (Base 50)    
Moisture  
Dew Point 57 °F    
Average Humidity 83    
Maximum Humidity 88    
Minimum Humidity 77    
Precipitation  
Precipitation 0.00 in - - ()
Sea Level Pressure  
Sea Level Pressure 29.89 in    
Wind  
Wind Speed 6 mph (SSE)    
Max Wind Speed 9 mph    
Max Gust Speed -    
Visibility 6 miles    
Events      
Averages and records for this station are not official NWS values.
T = Trace of Precipitation, MM = Missing Value Source: NWS Daily Summary

Daily Weather History Graph

Daily Weather History Graph

Search for Another Location

Airport or City:

Trip Planner

Search our weather history database for the weather conditions in past years. The results will help you decide how hot, cold, wet, or windy it might be!

Date:

Astronomy

Dec. 08, 2012 Rise Set
Actual Time 7:01 AM CST 4:55 PM CST
Civil Twilight 6:33 AM CST 5:23 PM CST
Nautical Twilight 6:01 AM CST 5:54 PM CST
Astronomical Twilight 5:31 AM CST 6:25 PM CST
Moon 1:36 AM CST (12/8) 1:16 PM CST (12/8)
Length of Visible Light 10h 50m
Length of Day
9h 54m
Waning Crescent, 28% of the Moon is Illuminated
Dec 8
Waning Crescent
Dec 13
New
Dec 19
First Quarter
Dec 28
Full
Jan 4
Last Quarter

Hourly Weather History & Observations

Time (CST) Temp. Dew Point Humidity Pressure Visibility Wind Dir Wind Speed Gust Speed Precip Events Conditions
12:35 AM 62.6 °F 55.4 °F 77% 29.89 in 10.0 mi South 8.1 mph - N/A   Overcast
12:55 AM 62.6 °F 55.4 °F 77% 29.89 in 10.0 mi South 8.1 mph - N/A   Overcast
1:35 AM 62.6 °F 55.4 °F 77% 29.88 in 10.0 mi SSE 6.9 mph - N/A   Overcast
1:55 AM 62.6 °F 55.4 °F 77% 29.88 in 10.0 mi South 5.8 mph - N/A   Overcast
2:15 AM 62.6 °F 55.4 °F 77% 29.88 in 10.0 mi South 5.8 mph - N/A   Overcast
2:36 AM 62.6 °F 55.4 °F 77% 29.88 in 10.0 mi South 6.9 mph - N/A   Overcast
2:55 AM 62.6 °F 55.4 °F 77% 29.88 in 10.0 mi South 4.6 mph - N/A   Mostly Cloudy
3:55 AM 60.8 °F 55.4 °F 82% 29.88 in 10.0 mi SSW 5.8 mph - N/A   Overcast
4:15 AM 60.8 °F 55.4 °F 82% 29.88 in 10.0 mi South 5.8 mph - N/A   Overcast
4:35 AM 60.8 °F 55.4 °F 82% 29.88 in 10.0 mi South 6.9 mph - N/A   Overcast
5:15 AM 60.8 °F 55.4 °F 82% 29.88 in 10.0 mi SSE 5.8 mph - N/A   Mostly Cloudy
5:35 AM 60.8 °F 55.4 °F 82% 29.88 in 9.0 mi Calm Calm - N/A   Mostly Cloudy
5:56 AM 60.8 °F 55.4 °F 82% 29.89 in 10.0 mi South 4.6 mph - N/A   Overcast
6:15 AM 60.8 °F 55.4 °F 82% 29.90 in 10.0 mi South 4.6 mph - N/A   Overcast
6:35 AM 59.0 °F 55.4 °F 88% 29.90 in 9.0 mi WNW 3.5 mph - N/A   Overcast
7:15 AM 60.8 °F 55.4 °F 82% 29.91 in 8.0 mi WNW 3.5 mph - N/A   Overcast
7:35 AM 60.8 °F 55.4 °F 82% 29.91 in 8.0 mi Calm Calm - N/A   Overcast
8:15 AM 60.8 °F 57.2 °F 88% 29.92 in 8.0 mi Calm Calm - N/A   Overcast
8:35 AM 60.8 °F 57.2 °F 88% 29.92 in 6.0 mi South 4.6 mph - N/A   Overcast
8:55 AM 62.6 °F 57.2 °F 82% 29.93 in 5.0 mi SSW 3.5 mph - N/A   Overcast
9:16 AM 62.6 °F 57.2 °F 82% 29.93 in 5.0 mi SW 3.5 mph - N/A   Overcast
9:35 AM 62.6 °F 57.2 °F 82% 29.93 in 5.0 mi South 4.6 mph - N/A   Overcast
9:55 AM 62.6 °F 57.2 °F 82% 29.94 in 6.0 mi SSW 3.5 mph - N/A   Overcast
10:15 AM 62.6 °F 57.2 °F 82% 29.94 in 5.0 mi SSW 3.5 mph - N/A   Overcast
10:35 AM 64.4 °F 57.2 °F 77% 29.94 in 7.0 mi SSW 4.6 mph - N/A   Overcast
10:55 AM 64.4 °F 57.2 °F 77% 29.93 in 6.0 mi SW 4.6 mph - N/A   Overcast
11:35 AM 64.4 °F 57.2 °F 77% 29.91 in 6.0 mi SSW 3.5 mph - N/A   Overcast
11:55 AM 64.4 °F 57.2 °F 77% 29.91 in 7.0 mi SSW 4.6 mph - N/A   Overcast
12:15 PM 64.4 °F 59.0 °F 83% 29.91 in 5.0 mi SW 5.8 mph - N/A   Overcast
12:36 PM 64.4 °F 59.0 °F 83% 29.90 in 4.0 mi SSW 4.6 mph - N/A   Overcast
12:55 PM 64.4 °F 59.0 °F 83% 29.89 in 4.0 mi SSE 3.5 mph - N/A   Overcast
1:55 PM 64.4 °F 59.0 °F 83% 29.88 in 2.0 mi Calm Calm - N/A   Overcast
2:35 PM 64.4 °F 59.0 °F 83% 29.87 in 3.0 mi SSE 6.9 mph - N/A   Overcast
2:55 PM 64.4 °F 59.0 °F 83% 29.88 in 5.0 mi South 5.8 mph - N/A   Overcast
3:35 PM 64.4 °F 59.0 °F 83% 29.88 in 5.0 mi ENE 3.5 mph - N/A   Overcast
3:55 PM 64.4 °F 59.0 °F 83% 29.88 in 4.0 mi ESE 4.6 mph - N/A   Overcast
4:15 PM 64.4 °F 59.0 °F 83% 29.88 in 4.0 mi East 5.8 mph - N/A   Overcast
4:55 PM 62.6 °F 59.0 °F 88% 29.88 in 3.0 mi ESE 5.8 mph - N/A   Mostly Cloudy
5:15 PM 62.6 °F 59.0 °F 88% 29.88 in 3.0 mi ESE 6.9 mph - N/A   Overcast
5:35 PM 62.6 °F 59.0 °F 88% 29.88 in 4.0 mi ESE 5.8 mph - N/A   Overcast
5:56 PM 62.6 °F 59.0 °F 88% 29.88 in 4.0 mi ESE 6.9 mph - N/A   Scattered Clouds
6:15 PM 62.6 °F 57.2 °F 82% 29.89 in 3.0 mi SE 5.8 mph - N/A   Mostly Cloudy
6:35 PM 60.8 °F 57.2 °F 88% 29.89 in 3.0 mi ESE 5.8 mph - N/A   Scattered Clouds
7:15 PM 60.8 °F 57.2 °F 88% 29.90 in 2.5 mi SE 5.8 mph - N/A   Mostly Cloudy
7:55 PM 62.6 °F 59.0 °F 88% 29.90 in 0.5 mi SE 8.1 mph - N/A   Overcast
8:35 PM 62.6 °F 59.0 °F 88% 29.90 in 3.0 mi SE 9.2 mph - N/A   Overcast
9:15 PM 62.6 °F 59.0 °F 88% 29.90 in 3.0 mi SSE 9.2 mph - N/A   Overcast
9:35 PM 62.6 °F 59.0 °F 88% 29.88 in 3.0 mi SE 9.2 mph - N/A   Scattered Clouds
9:55 PM 62.6 °F 59.0 °F 88% 29.88 in 3.0 mi SE 6.9 mph - N/A   Clear
10:15 PM 62.6 °F 57.2 °F 82% 29.88 in 4.0 mi SE 8.1 mph - N/A   Clear
10:36 PM 62.6 °F 57.2 °F 82% 29.89 in 4.0 mi SSE 5.8 mph - N/A   Partly Cloudy
10:55 PM 60.8 °F 57.2 °F 88% 29.89 in 4.0 mi SSE 5.8 mph - N/A   Scattered Clouds
11:15 PM 60.8 °F 57.2 °F 88% 29.88 in 4.0 mi SSE 5.8 mph - N/A   Partly Cloudy
11:36 PM 60.8 °F 57.2 °F 88% 29.88 in 5.0 mi SSE 6.9 mph - N/A   Scattered Clouds
11:55 PM 60.8 °F 57.2 °F 88% 29.88 in 5.0 mi SE 8.1 mph - N/A   Scattered Clouds